sat.trackr.live / text

‹ back to catalog

STARLINK-32208

NORAD 60598 · 2024-150R

PAYLOAD ACTIVE UNKNOWN

§ Identity

Operator
Country
US
Launch date
2024-08-20
Launch site
AFETR
Launch vehicle
Mass (kg)
RCS (m²)

Purposes: comms

External: N2YO · Heavens-Above · Gunter

§ Orbital elements

Epoch: 2026-09-21T21:45:55.469664Z

Period
93.85 min
Inclination
53.1588°
Eccentricity
0.0001030
Mean motion
15.34394364 rev/d
Perigee alt
462.0 km
Apogee alt
463.4 km
Semi-major
6,840.9 km
B*
2.1577e-4
RAAN
114.8782°
Arg perigee
91.0218°
Mean anomaly
269.0902°
Rev number
11,809

§ Raw data

STARLINK-322081 60598U 24150R   26264.90689201  .00006919  00000+0  21577-3 0  99942 60598  53.1588 114.8782 0001030  91.0218 269.0902 15.34394364118095

JSON: /api/v1/satellites/60598 · /tle

For live sub-satellite position, see the globe view (requires WebGL).

§ Visibility from observer

Set your observer location to see the next 7 days of passes ≥ 10°. The values pass through the URL so the page stays shareable.

No JS? Fill the form by hand. The geolocation button needs JavaScript.